Location: *
(38.9800°N, 16.0500°E)
Time: 22:24:05
(UTC+00:00)

SL-16 R/B - Pass Details

Date: 07 April 2020
Orbit: 985 x 1007 km, 99.5° (Epoch: 24 May)

Event Time Altitude Azimuth Distance (km) Brightness Sun altitude
Exits shadow 01:45:30 17° 314° (NW) 2,282 4.3 -29.9°
Drops below altitude 10° 01:47:09 10° 325° (NW) 2,777 4.9 -29.6°
Sets 01:49:57 0° 335° (NNW) 3,727 5.7 -29.2°
